Umiujaq Airport
CYMU : now visible

Airfield :











YOU CAN JOIN US ON...

 
LOGIN :

Register | Disclaimer

   EN    FR    IT 

 









Legend :    VFR   Marginal VFR   IFR   Intensive IFR   Very Intensive IFR
Visi :
Ceiling :
>= 8 km
>= 3000ft
5 to 8 km
1000 to 3000 ft
1500m to 5 km
500 to 1000 ft
800 to 1500m
200 to 500 ft
< 800m
< 200 ft
Symbols :   Thunderstorms  Fog  Heavy snow  Heavy precipitations  Wind > 20 kt






- Airport Elevation : 250 ft
- IATA code : YUD


CYMU - Umiujaq

CURRENT METAR :
  • 212000Z 33009G15KT 15SM BKN020 BKN120 BKN240 M07/M11 A2985 RMK ST5AC1CI2 AC TR CIG VRB 18-22 SLP118

EXPIRED METARs :
  • 211900Z 36010G16KT 15SM BKN018 OVC120 M07/M10 A2985 RMK ST6AC2 CIG VRB 16-20 SLP116
  • 211800Z 33009KT 15SM SCT017 BKN120 BKN240 M08/M11 A2984 RMK ST3AC2CI2 SLP114

TAF N/A
CZUL FIR / North America



MET'MAP, your aeronautical weather chart ! - Copyright ORBIFLY December 2007 - Disclaimer

ORBIFLY MET'MAP TEAM :

Programming & Development : Alexandra Zaïnal
Concept & original design : Baudouin d'Aumeries
Assistance for programming : Marc-Olivier Méhu
Technical & hardware support : Manuel Goepfert

Contact : metmap@orbifly.com




SOURCES & CREDITS :

   NOAA       Earth
Advisory